| time (UTC) | temp F | wind direction | speed MPH | gust MPH | rain 1hr in | rain 24hr in | rain mn in | humidity % | barometer mb |
| 20260906000016 | 52 | 225 | 0.0 | 7.0 | 0.00 | 0.31 | 0.00 | 76 | 1018.7 |
| 20260905234513 | 52 | 289 | 1.0 | 13.0 | 0.00 | 0.34 | 0.00 | 75 | 1018.6 |
| 20260905233012 | 52 | 239 | 0.0 | 8.0 | 0.00 | 0.34 | 0.00 | 78 | 1018.7 |
| 20260905231507 | 51 | 248 | 0.0 | 10.0 | 0.00 | 0.34 | 0.00 | 77 | 1018.5 |
| 20260905230003 | 50 | 241 | 0.0 | 11.0 | 0.00 | 0.35 | 0.00 | 80 | 1018.5 |
| 20260905224609 | 50 | 259 | 2.0 | 11.0 | 0.00 | 0.35 | 0.00 | 79 | 1018.3 |
| 20260905223059 | 50 | 281 | 0.0 | 12.0 | 0.00 | 0.35 | 0.00 | 80 | 1018.1 |
| 20260905214554 | 48 | 234 | 0.0 | 8.0 | 0.00 | 0.35 | 0.00 | 82 | 1017.6 |
| 20260905213057 | 47 | 290 | 0.0 | 5.0 | 0.00 | 0.35 | 0.00 | 82 | 1017.5 |
| 20260905211550 | 46 | 292 | 0.0 | 3.0 | 0.00 | 0.35 | 0.00 | 83 | 1017.1 |
| 20260905210105 | 46 | 351 | 1.0 | 12.0 | 0.00 | 0.35 | 0.00 | 83 | 1016.3 |
| 20260905204548 | 45 | 252 | 0.0 | 5.0 | 0.00 | 0.35 | 0.00 | 85 | 1016.1 |
| 20260905203046 | 45 | 275 | 0.0 | 2.0 | 0.00 | 0.35 | 0.00 | 85 | 1016.3 |
| 20260905201548 | 45 | 235 | 0.0 | 0.0 | 0.00 | 0.35 | 0.00 | 85 | 1016.2 |
| 20260905200056 | 45 | 292 | 0.0 | 0.0 | 0.00 | 0.35 | 0.00 | 84 | 1016.0 |
| 20260905194540 | 46 | 260 | 0.0 | 10.0 | 0.00 | 0.35 | 0.00 | 85 | 1015.7 |
| 20260905193038 | 46 | 255 | 0.0 | 5.0 | 0.00 | 0.35 | 0.00 | 85 | 1015.5 |
| 20260905191540 | 46 | 237 | 0.0 | 1.0 | 0.00 | 0.35 | 0.00 | 85 | 1015.3 |
| 20260905190034 | 46 | 332 | 0.0 | 0.0 | 0.00 | 0.35 | 0.00 | 84 | 1015.0 |
| 20260905184536 | 46 | 283 | 0.0 | 3.0 | 0.00 | 0.35 | 0.00 | 83 | 1014.8 |
| 20260905183031 | 46 | 223 | 0.0 | 8.0 | 0.00 | 0.35 | 0.00 | 83 | 1014.8 |
| 20260905181528 | 47 | 257 | 0.0 | 9.0 | 0.00 | 0.35 | 0.00 | 82 | 1014.6 |
| 20260905180028 | 47 | 249 | 0.0 | 9.0 | 0.00 | 0.35 | 0.00 | 81 | 1014.5 |
| 20260905174525 | 47 | 251 | 0.0 | 7.0 | 0.00 | 0.35 | 0.00 | 80 | 1014.4 |
| 20260905173025 | 47 | 249 | 0.0 | 6.0 | 0.00 | 0.35 | 0.00 | 80 | 1014.4 |
| 20260905171536 | 47 | 247 | 0.0 | 5.0 | 0.00 | 0.35 | 0.00 | 81 | 1013.9 |
| 20260905170024 | 47 | 189 | 3.0 | 18.0 | 0.00 | 0.35 | 0.00 | 81 | 1013.0 |
| 20260905164517 | 47 | 251 | 8.0 | 20.0 | 0.00 | 0.35 | 0.00 | 80 | 1011.8 |
| 20260905163017 | 48 | 234 | 7.0 | 20.0 | 0.00 | 0.35 | 0.00 | 78 | 1011.9 |
| 20260905161511 | 47 | 257 | 10.0 | 23.0 | 0.00 | 0.35 | 0.00 | 78 | 1012.3 |
| 20260905160015 | 47 | 228 | 7.0 | 19.0 | 0.00 | 0.35 | 0.00 | 79 | 1013.0 |
| 20260905154504 | 48 | 283 | 4.0 | 19.0 | 0.00 | 0.35 | 0.00 | 78 | 1013.1 |
| 20260905153003 | 48 | 239 | 4.0 | 16.0 | 0.00 | 0.35 | 0.00 | 78 | 1012.9 |
| 20260905151600 | 49 | 234 | 9.0 | 20.0 | 0.00 | 0.35 | 0.00 | 76 | 1013.2 |
| 20260905150058 | 49 | 230 | 3.0 | 15.0 | 0.00 | 0.35 | 0.00 | 76 | 1012.9 |
| 20260905144557 | 49 | 214 | 0.0 | 12.0 | 0.00 | 0.35 | 0.00 | 78 | 1012.8 |
| 20260905143053 | 48 | 249 | 3.0 | 12.0 | 0.00 | 0.35 | 0.00 | 81 | 1012.9 |
| 20260905141550 | 48 | 217 | 3.0 | 14.0 | 0.00 | 0.35 | 0.00 | 81 | 1012.8 |
| 20260905140046 | 48 | 232 | 1.0 | 15.0 | 0.00 | 0.35 | 0.00 | 81 | 1012.5 |
| 20260905134551 | 48 | 321 | 1.0 | 11.0 | 0.02 | 0.35 | 0.35 | 82 | 1012.7 |
| 20260905133045 | 48 | 222 | 0.0 | 18.0 | 0.04 | 0.35 | 0.35 | 83 | 1012.8 |
| 20260905131544 | 48 | 239 | 4.0 | 15.0 | 0.04 | 0.35 | 0.35 | 83 | 1012.5 |
| 20260905130042 | 48 | 215 | 2.0 | 10.0 | 0.04 | 0.35 | 0.35 | 87 | 1012.5 |
| 20260905124547 | 49 | 284 | 0.0 | 11.0 | 0.02 | 0.34 | 0.34 | 85 | 1012.5 |
| 20260905123039 | 50 | 296 | 2.0 | 18.0 | 0.00 | 0.31 | 0.31 | 77 | 1011.8 |
| 20260905121538 | 51 | 270 | 2.0 | 16.0 | 0.00 | 0.31 | 0.31 | 76 | 1011.8 |
| 20260905120038 | 51 | 244 | 0.0 | 8.0 | 0.00 | 0.31 | 0.31 | 75 | 1011.5 |
| 20260905114538 | 52 | 221 | 1.0 | 7.0 | 0.00 | 0.31 | 0.31 | 74 | 1011.8 |
| 20260905113037 | 52 | 260 | 0.0 | 4.0 | 0.00 | 0.31 | 0.31 | 73 | 1011.9 |
| 20260905111536 | 53 | 235 | 0.0 | 8.0 | 0.00 | 0.31 | 0.31 | 72 | 1012.2 |
| 20260905110035 | 53 | 264 | 0.0 | 9.0 | 0.00 | 0.31 | 0.31 | 72 | 1012.2 |
| 20260905104543 | 53 | 256 | 0.0 | 11.0 | 0.00 | 0.31 | 0.31 | 72 | 1011.9 |
| 20260905103036 | 53 | 226 | 0.0 | 8.0 | 0.00 | 0.31 | 0.31 | 74 | 1011.8 |
| 20260905101533 | 54 | 226 | 3.0 | 18.0 | 0.00 | 0.31 | 0.31 | 76 | 1011.6 |
| 20260905100032 | 54 | 285 | 3.0 | 13.0 | 0.01 | 0.31 | 0.31 | 77 | 1011.3 |
| 20260905094534 | 54 | 183 | 2.0 | 17.0 | 0.01 | 0.31 | 0.31 | 79 | 1011.1 |
| 20260905093031 | 54 | 235 | 2.0 | 17.0 | 0.01 | 0.31 | 0.31 | 81 | 1010.9 |
| 20260905091531 | 54 | 227 | 7.0 | 19.0 | 0.01 | 0.31 | 0.31 | 84 | 1010.8 |
| 20260905090029 | 53 | 234 | 2.0 | 10.0 | 0.00 | 0.31 | 0.31 | 88 | 1010.5 |
| 20260905083026 | 52 | 238 | 1.0 | 11.0 | 0.00 | 0.31 | 0.31 | 91 | 1010.1 |
| 20260905081524 | 52 | 182 | 3.0 | 15.0 | 0.00 | 0.31 | 0.31 | 91 | 1010.0 |
| 20260905080035 | 52 | 225 | 4.0 | 11.0 | 0.03 | 0.31 | 0.31 | 91 | 1010.1 |
| 20260905074522 | 52 | 294 | 3.0 | 0.0 | 0.00 | 0.00 | 0.31 | 90 | 1009.9 |
| 20260905073035 | 53 | 250 | 2.0 | 14.0 | 0.07 | 0.31 | 0.31 | 90 | 1010.0 |
| 20260905071520 | 53 | 247 | 7.0 | 18.0 | 0.08 | 0.31 | 0.31 | 90 | 1009.9 |
| 20260905070019 | 53 | 274 | 4.0 | 10.0 | 0.05 | 0.28 | 0.28 | 90 | 1009.6 |
| 20260905064518 | 53 | 237 | 4.0 | 12.0 | 0.02 | 0.24 | 0.24 | 90 | 1009.4 |
| 20260905063018 | 53 | 339 | 0.0 | 6.0 | 0.00 | 0.23 | 0.23 | 90 | 1009.5 |
| 20260905061520 | 53 | 251 | 0.0 | 8.0 | 0.00 | 0.23 | 0.23 | 90 | 1009.6 |
| 20260905060017 | 53 | 228 | 2.0 | 8.0 | 0.00 | 0.23 | 0.23 | 90 | 1009.4 |
| 20260905054516 | 53 | 235 | 2.0 | 12.0 | 0.00 | 0.23 | 0.23 | 90 | 1009.7 |
| 20260905053018 | 53 | 280 | 1.0 | 11.0 | 0.02 | 0.23 | 0.23 | 90 | 1009.8 |
| 20260905051510 | 53 | 296 | 1.0 | 6.0 | 0.06 | 0.23 | 0.23 | 90 | 1010.0 |
| 20260905050011 | 52 | 268 | 2.0 | 8.0 | 0.10 | 0.23 | 0.23 | 91 | 1010.8 |
| 20260905044514 | 52 | 279 | 0.0 | 10.0 | 0.13 | 0.23 | 0.23 | 91 | 1011.1 |
| 20260905043005 | 52 | 322 | 0.0 | 4.0 | 0.12 | 0.20 | 0.20 | 92 | 1011.9 |
| 20260905041509 | 53 | 282 | 4.0 | 12.0 | 0.08 | 0.16 | 0.16 | 90 | 1012.2 |
| 20260905040003 | 53 | 243 | 3.0 | 15.0 | 0.06 | 0.13 | 0.13 | 90 | 1012.3 |
| 20260905034506 | 54 | 293 | 5.0 | 14.0 | 0.03 | 0.10 | 0.10 | 88 | 1012.6 |
| 20260905033002 | 55 | 224 | 5.0 | 16.0 | 0.02 | 0.09 | 0.09 | 85 | 1012.4 |
| 20260905031502 | 56 | 244 | 5.0 | 16.0 | 0.02 | 0.08 | 0.08 | 84 | 1012.2 |
| 20260905030002 | 57 | 207 | 4.0 | 14.0 | 0.01 | 0.07 | 0.07 | 83 | 1012.1 |
| 20260905024600 | 58 | 218 | 5.0 | 17.0 | 0.01 | 0.07 | 0.07 | 81 | 1012.1 |
| 20260905023105 | 58 | 247 | 3.0 | 14.0 | 0.01 | 0.07 | 0.07 | 81 | 1011.9 |
| 20260905021601 | 58 | 294 | 2.0 | 8.0 | 0.00 | 0.06 | 0.06 | 82 | 1011.8 |
| 20260905020056 | 58 | 322 | 0.0 | 9.0 | 0.00 | 0.06 | 0.06 | 84 | 1012.0 |
| 20260905014552 | 57 | 327 | 1.0 | 12.0 | 0.00 | 0.06 | 0.06 | 84 | 1012.2 |
| 20260905013150 | 57 | 265 | 2.0 | 7.0 | 0.00 | 0.06 | 0.06 | 84 | 1012.7 |
| 20260905011549 | 57 | 256 | 1.0 | 7.0 | 0.02 | 0.06 | 0.06 | 86 | 1012.7 |
| 20260905010051 | 56 | 259 | 0.0 | 6.0 | 0.02 | 0.06 | 0.06 | 88 | 1012.8 |
| 20260905004544 | 56 | 304 | 1.0 | 5.0 | 0.03 | 0.06 | 0.06 | 90 | 1013.2 |
| 20260905003042 | 55 | 278 | 0.0 | 3.0 | 0.02 | 0.06 | 0.06 | 90 | 1013.5 |
| 20260905001540 | 55 | 288 | 0.0 | 0.0 | 0.02 | 0.05 | 0.05 | 90 | 1014.3 |